TimeAWST,TemperatureF,Dew PointF,Humidity,Sea Level PressureIn,VisibilityMPH,Wind Direction,Wind SpeedMPH,Gust SpeedMPH,PrecipitationIn,Events,Conditions,WindDirDegrees,DateUTC
12:00 AM,81,51,24,29.75,,North,4.6,,,,,10,2012-10-29 16:00:00
12:00 AM,80.6,50.0,34,29.80,-9999.0,North,4.6,-,N/A,,Unknown,10,2012-10-29 16:00:00
2:00 AM,78,55,35,29.72,,NW,8.1,,,,,310,2012-10-29 18:00:00
2:00 AM,78.8,55.4,44,29.77,-9999.0,NW,8.1,-,N/A,,Unknown,310,2012-10-29 18:00:00
3:00 AM,78,56,36,29.73,,WNW,4.6,,,,,300,2012-10-29 19:00:00
3:00 AM,77.0,55.4,47,29.77,-9999.0,WNW,4.6,-,N/A,,Unknown,300,2012-10-29 19:00:00
4:00 AM,77.0,57.2,50,29.77,-9999.0,NW,8.1,-,N/A,,Unknown,310,2012-10-29 20:00:00
5:00 AM,77,56,39,29.75,,WNW,10.4,,,,,290,2012-10-29 21:00:00
5:00 AM,77.0,57.2,50,29.80,-9999.0,WNW,10.4,-,N/A,,Unknown,290,2012-10-29 21:00:00
6:00 AM,78,57,38,29.77,,WNW,8.1,,,,,300,2012-10-29 22:00:00
6:00 AM,78.8,57.2,47,29.83,-9999.0,WNW,8.1,-,N/A,,Unknown,300,2012-10-29 22:00:00
7:00 AM,82.4,57.2,42,29.83,-9999.0,WNW,8.1,-,N/A,,Unknown,300,2012-10-29 23:00:00
8:00 AM,87,58,27,29.80,,NW,6.9,,,,,310,2012-10-30 00:00:00
8:00 AM,87.8,57.2,35,29.83,-9999.0,NW,6.9,-,N/A,,Unknown,310,2012-10-30 00:00:00
9:00 AM,93,56,19,29.80,,West,5.8,,,,,280,2012-10-30 01:00:00
9:00 AM,93.2,55.4,28,29.83,-9999.0,West,5.8,-,N/A,,Unknown,280,2012-10-30 01:00:00
10:00 AM,96.8,51.8,22,29.83,-9999.0,NW,6.9,-,N/A,,Unknown,310,2012-10-30 02:00:00
11:00 AM,99,49,11,29.76,,WNW,8.1,,,,,300,2012-10-30 03:00:00
12:00 PM,102,47,9,29.74,,NNW,8.1,,,,,340,2012-10-30 04:00:00
12:00 PM,102.2,48.2,16,29.77,-9999.0,NNW,8.1,-,N/A,,Unknown,340,2012-10-30 04:00:00
1:00 PM,104.0,46.4,14,29.74,-9999.0,West,12.7,-,N/A,,Unknown,280,2012-10-30 05:00:00
2:00 PM,104,44,7,29.69,,West,6.9,,,,,270,2012-10-30 06:00:00
2:00 PM,104.0,42.8,12,29.74,-9999.0,West,6.9,-,N/A,,Unknown,270,2012-10-30 06:00:00
3:00 PM,100,47,10,29.68,,NNW,11.5,,,,,340,2012-10-30 07:00:00
3:00 PM,100.4,48.2,17,29.71,-9999.0,NNW,11.5,-,N/A,,Unknown,340,2012-10-30 07:00:00
4:00 PM,98.6,48.2,18,29.71,-9999.0,NNW,9.2,-,N/A,,Unknown,330,2012-10-30 08:00:00
5:00 PM,98,49,11,29.68,,NW,10.4,,,,,320,2012-10-30 09:00:00
5:00 PM,98.6,48.2,18,29.74,-9999.0,NW,10.4,-,N/A,,Unknown,320,2012-10-30 09:00:00
6:00 PM,96.8,50.0,20,29.74,-9999.0,NNW,5.8,-,N/A,,Unknown,340,2012-10-30 10:00:00
7:00 PM,93.2,50.0,23,29.77,-9999.0,WNW,6.9,-,N/A,,Unknown,300,2012-10-30 11:00:00
8:00 PM,92,53,17,29.76,,North,8.1,,,,,10,2012-10-30 12:00:00
8:00 PM,93.2,51.8,24,29.80,-9999.0,North,8.1,-,N/A,,Unknown,10,2012-10-30 12:00:00
9:00 PM,89,55,21,29.78,,NE,4.6,,,,,50,2012-10-30 13:00:00
9:00 PM,89.6,55.4,31,29.83,-9999.0,NE,4.6,-,N/A,,Unknown,50,2012-10-30 13:00:00
10:00 PM,87.8,55.4,33,29.83,-9999.0,North,5.8,-,N/A,,Unknown,360,2012-10-30 14:00:00
11:00 PM,90,53,19,29.77,,NNE,6.9,,,,,20,2012-10-30 15:00:00
11:00 PM,89.6,53.6,29,29.83,-9999.0,NNE,6.9,-,N/A,,Unknown,20,2012-10-30 15:00:00
11:31 PM,93.2,48.2,21,29.80,-9999.0,West,17.3,33.4,N/A,,Unknown,270,2012-10-30 15:31:00